Location: Melbourne
(37.8170°S, 144.9670°E)
Time: 07:47:43
(UTC+11:00)

Transit 2A - All Passes

Search period start: 23 October 2017 00:00
Search period end: 02 November 2017 00:00
Orbit: 592 x 967 km, 66.7° (Epoch: 21 October)

Date Brightness Start Highest point End Pass type
(mag) Time Alt. Az. Time Alt. Az. Time Alt. Az.
23 Oct - 00:34:56 10° S 00:38:36 26° SE 00:42:19 10° ENE visible
23 Oct - 02:17:57 10° SW 02:21:39 27° WNW 02:25:25 10° NNW night (unlit)
23 Oct - 15:12:23 10° N 15:17:21 37° ENE 15:21:55 10° SE daylight
23 Oct - 16:56:05 10° WNW 17:00:32 27° SW 17:04:40 10° S daylight
24 Oct - 00:01:26 10° S 00:04:24 18° SE 00:07:23 10° E visible
24 Oct - 01:43:34 10° SW 01:47:43 43° WNW 01:51:59 10° N visible
24 Oct - 14:39:06 10° NNE 14:43:25 24° ENE 14:47:26 10° ESE daylight
24 Oct - 16:21:26 10° NW 16:26:24 39° WSW 16:30:57 10° SSE daylight
24 Oct - 23:28:26 10° SSE 23:30:08 12° SE 23:31:49 10° ESE visible
25 Oct - 01:09:24 10° SSW 01:13:44 72° WNW 01:18:13 10° NNE visible
25 Oct - 14:06:20 10° NE 14:09:31 16° ENE 14:12:33 10° ESE daylight
25 Oct - 15:47:02 10° NW 15:52:19 58° WSW 15:57:07 10° SSE daylight
26 Oct - 00:35:22 10° SSW 00:39:44 70° ESE 00:44:12 10° NE visible
26 Oct - 15:12:52 10° NNW 15:18:16 88° WSW 15:23:10 10° SSE daylight
26 Oct - 17:00:04 10° WSW 17:01:59 12° SW 17:03:52 10° SSW daylight
27 Oct - 00:01:29 10° SSW 00:05:40 44° ESE 00:09:56 10° NE visible
27 Oct - 01:45:49 10° WSW 01:48:24 15° WNW 01:51:02 10° NW night (unlit)
27 Oct - 14:38:57 10° NNW 14:44:16 62° ENE 14:49:05 10° SE daylight
27 Oct - 16:24:23 10° W 16:27:43 17° SW 16:30:53 10° S daylight
27 Oct - 23:27:44 10° S 23:31:32 28° SE 23:35:24 10° ENE visible
28 Oct - 01:10:58 10° SW 01:14:32 24° WNW 01:18:11 10° NNW visible
28 Oct - 14:05:17 10° N 14:10:17 40° ENE 14:14:52 10° SE daylight
28 Oct - 15:49:18 10° WNW 15:53:30 24° SW 15:57:26 10° S daylight
28 Oct - 22:54:11 10° S 22:57:21 19° SE 23:00:34 10° E visible
29 Oct - 00:36:32 10° SW 00:40:36 39° WNW 00:44:49 10° N visible
29 Oct - 13:31:56 10° NNE 13:36:20 26° ENE 13:40:26 10° SE daylight
29 Oct - 15:14:34 10° WNW 15:19:22 35° WSW 15:23:47 10° S daylight
29 Oct - 22:21:00 10° SSE 22:23:06 13° SE 22:25:13 10° ESE visible
30 Oct - 00:02:18 10° SW 00:06:39 64° WNW 00:11:07 10° NNE visible
30 Oct - 12:59:01 10° NNE 13:02:26 17° ENE 13:05:40 10° ESE daylight
30 Oct - 14:40:07 10° NW 14:45:16 52° WSW 14:49:58 10° SSE daylight
30 Oct - 23:28:15 10° SSW 23:32:37 79° ESE 23:37:10 10° NNE visible
31 Oct - 12:27:18 10° ENE 12:28:34 11° ENE 12:29:48 10° E daylight
31 Oct - 14:05:54 10° NNW 14:11:13 80° WSW 14:16:02 10° SSE daylight
31 Oct - 15:53:51 10° WSW 15:54:59 11° SW 15:56:08 10° SSW daylight
31 Oct - 22:54:20 10° SSW 22:58:35 49° ESE 23:02:57 10° NE visible
01 Nov - 00:39:01 10° WSW 00:41:17 14° WNW 00:43:36 10° NW visible
01 Nov - 13:31:55 10° NNW 13:37:12 68° ENE 13:41:59 10° SSE daylight
01 Nov - 15:17:42 10° W 15:20:42 16° SW 15:23:33 10° SSW daylight
01 Nov - 22:20:33 10° S 22:24:28 31° SE 22:28:29 10° ENE visible
